アラン-リゴー彗星

49P/Arend-Rigaux (2005)

English version
Home page
Total 6,336 html files since Dec. 4, 1995
Updated on September 3, 2006

---------------------------------------------------------------------

・ プロフィール

・ 写真集

・ 軌道要素

Epoch 2005 Mar. 11.0 TT = JDT 2453440.5
T 2005 Feb. 24.5575 TT                                  MPCW
q   1.368551             (2000.0)            P               Q
n   0.1490193      Peri.  330.7017      -0.0620761      -0.9616043
a   3.523501       Node   121.6483      +0.9659204      -0.1253165
e   0.611593       Incl.   18.3021      +0.2512853      +0.2441574
P   6.61
From 268 observations 1951-1999, mean residual 1".0.  Nongravitational
     parameters A1 = +0.02, A2 = -0.0005.

・ 星図

・ 光度変化

        H = 13.5  G = 0.15                        [    ,-140]  (              〜2004年10月 7日)
        m1 = 13.5 + 5 logΔ +  8.0 log r          [-140, -40]  (2004年10月 7日〜2005年 1月15日)
        m1 =  3.4 + 5 logΔ + 65   log r(t - 12)  [ -40,  70]  (2005年 1月15日〜2005年 5月 5日)
        m1 = 13.5 + 5 logΔ +  8.0 log r          [  70, 140]  (2005年 5月 5日〜2005年 7月14日)
        H = 13.5  G = 0.15                        [ 140,    ]  (2005年 7月14日〜              )

---------------------------------------------------------------------

軌道要素はMPCのEphemerides and Orbital Elementsに掲載されたものです。
星図は StellaNavigator Ver.2.0 for Windows (アストロアーツ 編著 / アスキー出版局刊) で作成したものです。
光度グラフはComet for Windowsで作成したものです。

---------------------------------------------------------------------

Copyright(C) 1995-2008 Seiichi Yoshida (comet@aerith.net). All rights reserved.